Find Starlink 4473

NORAD ID: 53660 Int'l Des: 2022-105 Owner: SPXS Country: US Constellation: starlink operational
LEOCIRCULARRETROGRADESSO

当前视图

正在加载3D地球...

About Starlink 4473

Starlink 4473 (NORAD 53660) is a starlink constellation satellite (v1.5) launched Aug 31, 2022 by SPXS of US. It operates in LEO, CIRCULAR, RETROGRADE, SSO orbit with a mass of 300.00 kg.

关于 Starlink 4473

正在加载描述...

即将过境

Passes for default location (London). Set your location on the main map for personalized predictions.

高度历史

Loading altitude history...

两行轨道根数

1 53660U 22105N 26178.17208311 -.00001758 00000-0 -11795-3 0 9996
2 53660 97.3069 56.7123 0002223 81.8676 278.2803 15.05658759209704
Epoch: Jun 27, 2026 • Age: 7 hours

当前状态

高度 559.9 km
速度 7.58 km/s
星下点 -25.32°S, 146.67°E
发射日期 Aug 31, 2022
运行时间 3.8 years
类型 internet

技术详情

分类 Payload
质量 300.00 kg
干质量 290.00 kg
总质量 300.00 kg
长度 0.20 m
直径 2.80 m
跨度 9.00 m
形状 Box + pan
制造商 SPXS
平台类型 Starlink
阶段状态 In Orbit
所有者/国家 SPXS/US

Most Searched